Weather Roundup
Issued by NWS Chicago, IL

Home | Current Version | Previous Version | Graphics & Text | Print | Product List | Glossary On
Versions: 1 2 3 4 5 6 7 8 9 10 11 12 13 14 15 16 17 18 19 20 21 22 23 24 25 26 27 28 29 30 31 32 33 34 35 36 37 38 39 40 41 42 43 44 45 46 47 48 49 50
000
NZUS59 KLOT 222204
HRRLOT

CHICAGO AREA WEATHER ROUNDUP
NATIONAL WEATHER SERVICE CHICAGO/ROMEOVILLE IL
500 PM CDT FRI SEP 22 2017

NOTE: "FAIR" INDICATES FEW OR NO CLOUDS BELOW 12,000 FEET WITH NO
SIGNIFICANT WEATHER AND/OR OBSTRUCTIONS TO VISIBILITY.

* THESE STATIONS ARE NOT UNDER NWS QUALITY CONTROL. THEY ALSO MAY NOT
  REPORT WEATHER SUCH AS PRECIPITATION OR FOG.

ILZ005-006-012>014-019>023-222300-
NORTHEAST ILLINOIS

CITY           SKY/WX    TMP DP  RH WIND       PRES   REMARKS
OHARE          MOSUNNY   93  63  36 S9        30.01S HX  94
MIDWAY         MOSUNNY   94  64  37 S10       30.02R HX  95
AURORA         SUNNY     92  65  40 S6        30.02F HX  94
LANSING*       SUNNY     91  67  46 S6        30.03S HX  94
JOLIET*        SUNNY     92  66  42 S6        30.02S HX  95
WAUKEGAN       SUNNY     85  69  58 SE8       30.02F HX  89
DUPAGE AIRPORT SUNNY     92  63  38 S6        30.02S HX  93
WHEELING       SUNNY     94  62  34 S6        30.03S HX  94
MORRIS*        SUNNY     92  64  39 S6        30.00F HX  93
NORTHERLY ISL    N/A     80  67  64 E6          N/A  HX  82
$$

WIZ051-052-058>065-066-070>072-222300-
SOUTHEAST WISCONSIN

CITY           SKY/WX    TMP DP  RH WIND       PRES   REMARKS
MILWAUKEE      MOSUNNY   88  68  51 SE13      30.01S HX  91
KENOSHA*       SUNNY     89  66  46 SE12      30.03S HX  91
RACINE*        SUNNY     84  68  58 S14       30.04S HX  87
WAUKESHA       SUNNY     90  61  37 S12       30.03S HX  89
$$

INZ001>003-010>013-019-020-222300-
NORTHWEST INDIANA

CITY           SKY/WX    TMP DP  RH WIND       PRES   REMARKS
GARY*          MOSUNNY   93  59  31 SE6       30.03F HX  92
MICHIGAN CITY* NOT AVBL
RENSSELAER*    NOT AVBL
VALPARAISO     SUNNY     93  65  39 CALM      30.04F HX  95
$$

LMZ740>746-222300-
SOUTHERN LAKE MICHIGAN

STATION/POSITION TIME  SKY/WX   TEMP WIND        PRES    VSBY
                                AIR  DIR/SP/G
                 (UTC)          (F)  (DEG/KT/KT) (MB)    (MI)
HARRISON CRIB    2140            83  100/ 16/ 17   N/A
BURNHAM HARBOR   2200            80                N/A
CALUMET HARBOR   2130            84   90/  7/  9 1016.2R
BURNS HARBOR     2140            80   80/ 10/ 12 1017.3F
MICHIGAN CITY    2140            82   50/ 11/ 11   N/A
$$

ABBREVIATIONS USED IN REMARKS
   TC - TEMPERATURE IN CELSIUS
  WCI - WIND CHILL INDEX
   HX - HEAT INDEX
  VSB - VISIBILITY
$$




USA.gov is the U.S. government's official web portal to all federal, state and local government web resources and services.